This is the latest recevied weather packets stored in our database for station/object C31FR-13. If no packets are shown the sender has not sent any weather packets the latest 10 day(s).
| Time | Temp. | Humidity | Pressure | Rain* | Wind** | Luminosity | Snow |
|---|---|---|---|---|---|---|---|
| 1777615862 | 12.78° C | 86% | 1022.7 hPa | - | - | - | - |
| 1777615562 | 12.78° C | 88% | 1022.7 hPa | - | - | - | - |
| 1777614963 | 12.22° C | 86% | 1022.6 hPa | - | - | - | - |
| 1777614662 | 12.22° C | 86% | 1022.5 hPa | - | - | - | - |
| 1777614363 | 12.22° C | 84% | 1022.5 hPa | - | - | - | - |
| 1777614062 | 11.67° C | 87% | 1022.5 hPa | - | - | - | - |
| 1777613762 | 12.22° C | 88% | 1022.5 hPa | - | - | - | - |
| 1777613162 | 11.67° C | 88% | 1022.5 hPa | - | - | - | - |
| 1777612863 | 11.67° C | 86% | 1022.4 hPa | - | - | - | - |
| 1777612563 | 12.22° C | 86% | 1022.4 hPa | - | - | - | - |
| 1777612263 | 11.67° C | 87% | 1022.4 hPa | - | - | - | - |
| 1777611662 | 12.22° C | 85% | 1022.3 hPa | - | - | - | - |
| 1777611363 | 12.22° C | 86% | 1022.2 hPa | - | - | - | - |
| 1777611062 | 11.67° C | 87% | 1022 hPa | - | - | - | - |
| 1777610462 | 11.67° C | 87% | 1021.9 hPa | - | - | - | - |
| 1777610163 | 11.67° C | 87% | 1021.9 hPa | - | - | - | - |
| 1777609262 | 11.11° C | 92% | 1021.7 hPa | - | - | - | - |
| 1777608962 | 11.67° C | 88% | 1021.6 hPa | - | - | - | - |
| 1777608662 | 11.67° C | 88% | 1021.6 hPa | - | - | - | - |
| 1777608362 | 11.67° C | 89% | 1021.6 hPa | - | - | - | - |
| 1777607462 | 11.67° C | 91% | 1021.6 hPa | - | - | - | - |
| 1777607163 | 11.67° C | 91% | 1021.5 hPa | - | - | - | - |
| 1777606862 | 12.22° C | 89% | 1021.5 hPa | - | - | - | - |
| 1777606562 | 12.22° C | 87% | 1021.5 hPa | - | - | - | - |
| 1777606262 | 12.22° C | 88% | 1021.5 hPa | - | - | - | - |
* Rain since midnight (hover to see other rain measurements)
** Current wind speed in m/s (hover to see current wind gust speed)